Flag for Thailand Weather past 2 weeks in Udon Thani, Thailand

Now
82 °F

Passing clouds.


Feels Like: 91 °F
Forecast: 74 / 86 °F
Wind: 8 mph from Southeast

Location: Udon Thani Airport

Current Time: Sep 18, 2014 at 12:36:24 AM

Latest Report: Sep 17, 2014 at 9:00 PM


Visibility: N/A

Pressure: 29.71 "Hg

Humidity: 84%

Dew point: 77 °F

Location of Udon ThaniLocation

Historic Weather in Udon Thani — Graph

°F

Udon Thani temperature yesterday

Maximum temperature yesterday: 88 °F (at 2:00 PM)
Minimum temperature yesterday: 79 °F (at 6:00 AM)
Average temperature yesterday: 84 °F

Past Weeks' High & Low Weather Summary

 TemperatureHumidityPressure
High95 °F (Sep 9, 3:00 PM)100% (Sep 3, 8:00 PM)29.89 "Hg (Sep 3, 8:00 PM)
Low75 °F (Sep 3, 6:00 AM)53% (Sep 9, 3:00 PM)29.45 "Hg (Sep 16, 4:00 PM)
Average84 °F78%29.71 "Hg
* Reported Sep 3 6:00 AM — Sep 17 9:00 PM, Udon Thani, Weather by CustomWeather, © 2014

Note: Actual official high and low records may vary slightly from our data, if they occured in-between our weather recording intervals... More about our weather records

Advertising

Udon Thani weather history for previous 24 hours

 ConditionsComfort  
Time TempWeatherWind HumidityBarometerVisibility
9:00 PM
Sep 17
82 °FPassing clouds.8 mph84%29.71 "HgN/A
8:00 PM82 °FPassing clouds.8 mph84%29.68 "HgN/A
7:00 PM84 °FPartly cloudy.6 mph79%29.65 "HgN/A
6:00 PM84 °FBroken clouds.6 mph79%29.62 "HgN/A
5:00 PM88 °FPartly sunny.9 mph70%29.59 "HgN/A
4:00 PM88 °FPartly sunny.8 mph70%29.59 "HgN/A
3:00 PM88 °FBroken clouds.8 mph70%29.56 "HgN/A
2:00 PM88 °FMore clouds than sun.10 mph66%29.59 "HgN/A
1:00 PM86 °FMore clouds than sun.9 mph75%29.59 "HgN/A
12:00 PM84 °FOvercast.10 mph79%29.62 "HgN/A
11:00 AM84 °FMore clouds than sun.10 mph74%29.62 "HgN/A
10:00 AM82 °FSunny.14 mph79%29.62 "Hg10 mi
9:00 AM81 °FPassing clouds.9 mph84%29.59 "HgN/A
8:00 AM81 °FSunny.8 mph84%29.56 "Hg10 mi
7:00 AM79 °FMore clouds than sun.8 mph89%29.53 "HgN/A
6:00 AM79 °FPassing clouds.6 mph89%29.50 "HgN/A
Weather by CustomWeather, © 2014

See weather overviewHow to use our weather pages